www.luftgeist.de
Wetterdaten: aktuell Montag, 25.10.2021 20:55
Datum Zeit Auentemp. Sonne (%) Auenfeuchte Luftdruck Regenmenge Wind Windichtung Windichtung Sonnenschein Taupunkt Windchill Windben
25.10.2021 20:55 8,4 C 0 % 79 % 1019,1 hPa 0,0 l/m 0,0 km/h (0 Bft) S 180 0 min 5,0 C 8,4 C 0,0 km/h (0 Bft)
25.10.2021 20:50 8,6 C 0 % 79 % 1019,1 hPa 0,0 l/m 0,0 km/h (0 Bft) S-SO 157 0 min 5,2 C 8,6 C 0,0 km/h (0 Bft)
25.10.2021 20:45 8,9 C 0 % 78 % 1019,1 hPa 0,0 l/m 0,0 km/h (0 Bft) S-SW 202 0 min 5,3 C 8,9 C 0,0 km/h (0 Bft)
25.10.2021 20:40 9,1 C 0 % 78 % 1019,1 hPa 0,0 l/m 0,0 km/h (0 Bft) S-SO 157 0 min 5,5 C 9,1 C 0,0 km/h (0 Bft)
25.10.2021 20:35 9,5 C 0 % 77 % 1019,1 hPa 0,0 l/m 0,0 km/h (0 Bft) S 180 0 min 5,7 C 9,5 C 0,0 km/h (0 Bft)
25.10.2021 20:30 9,6 C 0 % 77 % 1019,1 hPa 0,0 l/m 0,0 km/h (0 Bft) S 180 0 min 5,8 C 9,6 C 0,0 km/h (0 Bft)
25.10.2021 20:25 9,9 C 0 % 76 % 1019,1 hPa 0,0 l/m 0,5 km/h (0 Bft) N-NW 337 0 min 5,9 C 9,9 C 0,0 km/h (0 Bft)
25.10.2021 20:20 9,9 C 0 % 76 % 1019,0 hPa 0,0 l/m 1,3 km/h (1 Bft) NO 45 0 min 5,9 C 9,9 C 0,0 km/h (0 Bft)
25.10.2021 20:15 10,1 C 0 % 76 % 1019,0 hPa 0,0 l/m 1,3 km/h (1 Bft) S-SO 157 0 min 6,1 C 10,1 C 0,0 km/h (0 Bft)
25.10.2021 20:10 10,3 C 0 % 76 % 1019,0 hPa 0,0 l/m 1,0 km/h (0 Bft) O 90 0 min 6,3 C 10,3 C 2,7 km/h (1 Bft)
25.10.2021 20:05 10,4 C 0 % 75 % 1019,0 hPa 0,0 l/m 0,8 km/h (0 Bft) N-NO 22 0 min 6,2 C 10,4 C 0,0 km/h (0 Bft)
25.10.2021 20:00 10,7 C 0 % 75 % 1019,1 hPa 0,0 l/m 0,8 km/h (0 Bft) O-SO 112 0 min 6,5 C 10,7 C 0,0 km/h (0 Bft)
25.10.2021 19:55 10,7 C 0 % 75 % 1019,1 hPa 0,0 l/m 1,1 km/h (1 Bft) N-NO 22 0 min 6,5 C 10,7 C 0,0 km/h (0 Bft)
25.10.2021 19:50 10,7 C 0 % 75 % 1019,1 hPa 0,0 l/m 1,3 km/h (1 Bft) N-NO 22 0 min 6,5 C 10,7 C 0,0 km/h (0 Bft)
25.10.2021 19:45 10,8 C 0 % 75 % 1019,1 hPa 0,0 l/m 0,6 km/h (0 Bft) NO 45 0 min 6,5 C 10,8 C 2,4 km/h (1 Bft)
25.10.2021 19:40 10,8 C 0 % 75 % 1018,7 hPa 0,0 l/m 0,6 km/h (0 Bft) NO 45 0 min 6,5 C 10,8 C 0,0 km/h (0 Bft)
25.10.2021 19:35 10,7 C 0 % 75 % 1018,7 hPa 0,0 l/m 0,3 km/h (0 Bft) O-NO 67 0 min 6,5 C 10,7 C 0,0 km/h (0 Bft)
25.10.2021 19:30 10,7 C 0 % 74 % 1018,7 hPa 0,0 l/m 0,0 km/h (0 Bft) NO 45 0 min 6,3 C 10,7 C 0,0 km/h (0 Bft)
25.10.2021 19:25 10,8 C 0 % 74 % 1018,7 hPa 0,0 l/m 0,0 km/h (0 Bft) O-SO 112 0 min 6,4 C 10,8 C 0,0 km/h (0 Bft)
25.10.2021 19:20 10,8 C 0 % 74 % 1018,6 hPa 0,0 l/m 0,0 km/h (0 Bft) O-NO 67 0 min 6,4 C 10,8 C 0,0 km/h (0 Bft)
25.10.2021 19:15 11,0 C 0 % 73 % 1018,6 hPa 0,0 l/m 0,0 km/h (0 Bft) SO 135 0 min 6,4 C 11,0 C 0,0 km/h (0 Bft)
25.10.2021 19:10 11,1 C 0 % 73 % 1018,6 hPa 0,0 l/m 0,0 km/h (0 Bft) S-SW 202 0 min 6,4 C 11,1 C 0,0 km/h (0 Bft)
25.10.2021 19:05 11,1 C 0 % 73 % 1018,6 hPa 0,0 l/m 0,2 km/h (0 Bft) S 180 0 min 6,4 C 11,1 C 0,0 km/h (0 Bft)
25.10.2021 19:00 11,3 C 0 % 73 % 1018,6 hPa 0,0 l/m 0,3 km/h (0 Bft) S 180 0 min 6,6 C 11,3 C 0,0 km/h (0 Bft)
25.10.2021 18:55 11,3 C 0 % 73 % 1018,6 hPa 0,0 l/m 0,3 km/h (0 Bft) S 180 0 min 6,6 C 11,3 C 2,3 km/h (1 Bft)
25.10.2021 18:50 11,4 C 0 % 73 % 1018,6 hPa 0,0 l/m 0,6 km/h (0 Bft) W-SW 247 0 min 6,7 C 11,4 C 2,1 km/h (1 Bft)
25.10.2021 18:45 11,5 C 0 % 72 % 1018,6 hPa 0,0 l/m 1,8 km/h (1 Bft) S-SW 202 0 min 6,6 C 11,5 C 0,0 km/h (0 Bft)
25.10.2021 18:40 11,6 C 0 % 72 % 1018,8 hPa 0,0 l/m 1,8 km/h (1 Bft) S-SO 157 0 min 6,7 C 11,6 C 0,0 km/h (0 Bft)
25.10.2021 18:35 11,7 C 0 % 71 % 1018,8 hPa 0,0 l/m 1,3 km/h (1 Bft) S-SW 202 0 min 6,6 C 11,7 C 3,7 km/h (1 Bft)
25.10.2021 18:30 11,9 C 0 % 71 % 1018,8 hPa 0,0 l/m 0,8 km/h (0 Bft) W-SW 247 0 min 6,8 C 11,9 C 0,0 km/h (0 Bft)
25.10.2021 18:25 12,0 C 0 % 71 % 1018,8 hPa 0,0 l/m 0,5 km/h (0 Bft) S-SO 157 0 min 6,9 C 12,0 C 1,9 km/h (1 Bft)
25.10.2021 18:20 12,1 C 0 % 70 % 1018,8 hPa 0,0 l/m 0,8 km/h (0 Bft) S 180 0 min 6,8 C 12,1 C 1,9 km/h (1 Bft)
25.10.2021 18:15 12,3 C 0 % 70 % 1018,8 hPa 0,0 l/m 1,0 km/h (0 Bft) S 180 0 min 7,0 C 12,3 C 0,0 km/h (0 Bft)
25.10.2021 18:10 12,4 C 3 % 69 % 1018,8 hPa 0,0 l/m 0,6 km/h (0 Bft) S 180 0 min 6,9 C 12,4 C 3,4 km/h (1 Bft)
25.10.2021 18:05 12,7 C 10 % 69 % 1018,8 hPa 0,0 l/m 0,6 km/h (0 Bft) S-SO 157 0 min 7,2 C 12,7 C 0,0 km/h (0 Bft)
25.10.2021 18:00 12,7 C 14 % 68 % 1018,9 hPa 0,0 l/m 0,6 km/h (0 Bft) S 180 0 min 6,9 C 12,7 C 0,0 km/h (0 Bft)
25.10.2021 17:55 12,9 C 17 % 68 % 1018,9 hPa 0,0 l/m 1,0 km/h (0 Bft) S 180 0 min 7,1 C 12,9 C 2,6 km/h (1 Bft)
25.10.2021 17:50 13,1 C 20 % 68 % 1018,9 hPa 0,0 l/m 0,8 km/h (0 Bft) SW 225 5 min 7,3 C 13,1 C 1,6 km/h (1 Bft)
25.10.2021 17:45 13,2 C 38 % 67 % 1018,9 hPa 0,0 l/m 0,5 km/h (0 Bft) S 180 5 min 7,2 C 13,2 C 2,4 km/h (1 Bft)
25.10.2021 17:40 13,3 C 27 % 67 % 1018,8 hPa 0,0 l/m 1,1 km/h (1 Bft) S-SW 202 5 min 7,3 C 13,3 C 1,9 km/h (1 Bft)
25.10.2021 17:35 13,5 C 31 % 66 % 1018,8 hPa 0,0 l/m 2,4 km/h (1 Bft) S 180 5 min 7,3 C 13,5 C 1,8 km/h (1 Bft)
25.10.2021 17:30 13,6 C 34 % 66 % 1018,8 hPa 0,0 l/m 2,3 km/h (1 Bft) S-SW 202 5 min 7,4 C 13,6 C 1,9 km/h (1 Bft)
25.10.2021 17:25 13,6 C 38 % 65 % 1018,8 hPa 0,0 l/m 2,9 km/h (1 Bft) S-SW 202 5 min 7,1 C 13,6 C 2,7 km/h (1 Bft)
25.10.2021 17:20 13,7 C 41 % 65 % 1019,1 hPa 0,0 l/m 3,7 km/h (1 Bft) SW 225 5 min 7,2 C 13,7 C 2,9 km/h (1 Bft)
25.10.2021 17:15 13,8 C 44 % 66 % 1019,1 hPa 0,0 l/m 3,2 km/h (1 Bft) S 180 5 min 7,6 C 13,8 C 5,1 km/h (1 Bft)
25.10.2021 17:10 13,9 C 45 % 66 % 1019,1 hPa 0,0 l/m 2,9 km/h (1 Bft) S-SW 202 5 min 7,7 C 13,9 C 3,7 km/h (1 Bft)
25.10.2021 17:05 13,9 C 47 % 66 % 1019,1 hPa 0,0 l/m 2,9 km/h (1 Bft) SW 225 5 min 7,7 C 13,9 C 6,1 km/h (2 Bft)
25.10.2021 17:00 14,0 C 50 % 66 % 1018,9 hPa 0,0 l/m 2,1 km/h (1 Bft) S-SO 157 5 min 7,7 C 14,0 C 3,2 km/h (1 Bft)
25.10.2021 16:55 14,1 C 53 % 67 % 1018,9 hPa 0,0 l/m 1,3 km/h (1 Bft) S-SO 157 5 min 8,1 C 14,1 C 2,7 km/h (1 Bft)
25.10.2021 16:50 14,1 C 56 % 67 % 1018,9 hPa 0,0 l/m 0,6 km/h (0 Bft) S-SO 157 5 min 8,1 C 14,1 C 3,2 km/h (1 Bft)
25.10.2021 16:45 14,2 C 61 % 67 % 1018,9 hPa 0,0 l/m 0,0 km/h (0 Bft) S 180 5 min 8,2 C 14,2 C 0,0 km/h (0 Bft)
25.10.2021 16:40 14,3 C 60 % 67 % 1019,1 hPa 0,0 l/m 0,0 km/h (0 Bft) NO 45 5 min 8,3 C 14,3 C 0,0 km/h (0 Bft)
25.10.2021 16:35 14,3 C 60 % 66 % 1019,1 hPa 0,0 l/m 0,2 km/h (0 Bft) W 270 5 min 8,0 C 14,3 C 0,0 km/h (0 Bft)
25.10.2021 16:30 14,3 C 60 % 66 % 1019,1 hPa 0,0 l/m 0,2 km/h (0 Bft) W-SW 247 5 min 8,0 C 14,3 C 0,0 km/h (0 Bft)
25.10.2021 16:25 14,3 C 64 % 66 % 1019,1 hPa 0,0 l/m 1,0 km/h (0 Bft) SW 225 5 min 8,0 C 14,3 C 2,9 km/h (1 Bft)
25.10.2021 16:20 14,2 C 65 % 66 % 1019,3 hPa 0,0 l/m 1,3 km/h (1 Bft) S 180 5 min 7,9 C 14,2 C 0,0 km/h (0 Bft)
25.10.2021 16:15 14,2 C 69 % 65 % 1019,3 hPa 0,0 l/m 1,4 km/h (1 Bft) W 270 5 min 7,7 C 14,2 C 3,7 km/h (1 Bft)
25.10.2021 16:10 14,1 C 70 % 65 % 1019,3 hPa 0,0 l/m 1,4 km/h (1 Bft) W 270 5 min 7,6 C 14,1 C 5,8 km/h (2 Bft)
25.10.2021 16:05 14,1 C 72 % 64 % 1019,3 hPa 0,0 l/m 1,9 km/h (1 Bft) SW 225 5 min 7,4 C 14,1 C 2,3 km/h (1 Bft)
25.10.2021 16:00 14,0 C 74 % 66 % 1019,4 hPa 0,0 l/m 1,8 km/h (1 Bft) W-SW 247 5 min 7,7 C 14,0 C 3,9 km/h (1 Bft)
25.10.2021 15:55 13,9 C 71 % 66 % 1019,4 hPa 0,0 l/m 2,7 km/h (1 Bft) W 270 0 min 7,7 C 13,9 C 5,8 km/h (2 Bft)
25.10.2021 15:50 13,9 C 71 % 66 % 1019,4 hPa 0,0 l/m 3,1 km/h (1 Bft) W-SW 247 0 min 7,7 C 13,9 C 3,5 km/h (1 Bft)
25.10.2021 15:45 13,7 C 71 % 68 % 1019,4 hPa 0,0 l/m 2,6 km/h (1 Bft) SO 135 0 min 7,9 C 13,7 C 5,8 km/h (2 Bft)
25.10.2021 15:40 13,7 C 70 % 65 % 1019,6 hPa 0,0 l/m 3,1 km/h (1 Bft) W-SW 247 0 min 7,2 C 13,7 C 3,9 km/h (1 Bft)
25.10.2021 15:35 13,9 C 70 % 65 % 1019,6 hPa 0,0 l/m 2,7 km/h (1 Bft) W-SW 247 0 min 7,4 C 13,9 C 3,4 km/h (1 Bft)
25.10.2021 15:30 13,9 C 70 % 65 % 1019,6 hPa 0,0 l/m 2,4 km/h (1 Bft) W-NW 292 0 min 7,4 C 13,9 C 5,3 km/h (1 Bft)
25.10.2021 15:25 14,2 C 69 % 63 % 1019,6 hPa 0,0 l/m 1,9 km/h (1 Bft) NW 315 0 min 7,3 C 14,2 C 1,9 km/h (1 Bft)
25.10.2021 15:20 14,4 C 71 % 63 % 1020,0 hPa 0,0 l/m 3,1 km/h (1 Bft) W 270 0 min 7,4 C 14,4 C 4,0 km/h (1 Bft)
25.10.2021 15:15 14,4 C 89 % 61 % 1020,0 hPa 0,0 l/m 4,3 km/h (1 Bft) SW 225 5 min 7,0 C 14,4 C 4,2 km/h (1 Bft)
25.10.2021 15:10 14,5 C 86 % 62 % 1020,0 hPa 0,0 l/m 4,3 km/h (1 Bft) S-SW 202 5 min 7,3 C 14,5 C 5,1 km/h (1 Bft)
25.10.2021 15:05 14,6 C 88 % 63 % 1020,0 hPa 0,0 l/m 4,5 km/h (1 Bft) SW 225 5 min 7,6 C 14,6 C 5,8 km/h (2 Bft)
25.10.2021 15:00 14,8 C 90 % 62 % 1020,1 hPa 0,0 l/m 5,0 km/h (1 Bft) S-SO 157 5 min 7,6 C 14,8 C 5,5 km/h (1 Bft)
25.10.2021 14:55 14,8 C 91 % 62 % 1020,1 hPa 0,0 l/m 6,3 km/h (2 Bft) S 180 5 min 7,6 C 14,8 C 4,0 km/h (1 Bft)
25.10.2021 14:50 15,0 C 90 % 60 % 1020,1 hPa 0,0 l/m 5,6 km/h (1 Bft) W 270 5 min 7,3 C 15,0 C 8,0 km/h (2 Bft)
25.10.2021 14:45 14,9 C 91 % 60 % 1020,1 hPa 0,0 l/m 5,5 km/h (1 Bft) SW 225 5 min 7,2 C 14,9 C 10,3 km/h (2 Bft)
25.10.2021 14:40 14,7 C 91 % 64 % 1020,9 hPa 0,0 l/m 4,3 km/h (1 Bft) NW 315 5 min 8,0 C 14,7 C 12,7 km/h (3 Bft)
25.10.2021 14:35 14,0 C 93 % 66 % 1020,9 hPa 0,0 l/m 0,6 km/h (0 Bft) S-SW 202 5 min 7,7 C 14,0 C 6,3 km/h (2 Bft)
25.10.2021 14:30 13,8 C 92 % 65 % 1020,9 hPa 0,0 l/m 0,5 km/h (0 Bft) N-NO 22 5 min 7,3 C 13,8 C 0,0 km/h (0 Bft)
25.10.2021 14:25 13,7 C 92 % 65 % 1020,9 hPa 0,0 l/m 1,8 km/h (1 Bft) NO 45 5 min 7,2 C 13,7 C 0,0 km/h (0 Bft)
25.10.2021 14:20 13,8 C 92 % 66 % 1020,8 hPa 0,0 l/m 2,7 km/h (1 Bft) SO 135 5 min 7,6 C 13,8 C 2,9 km/h (1 Bft)
25.10.2021 14:15 13,7 C 93 % 64 % 1020,8 hPa 0,0 l/m 1,6 km/h (1 Bft) W 270 5 min 7,0 C 13,7 C 0,0 km/h (0 Bft)
25.10.2021 14:10 13,5 C 94 % 64 % 1020,8 hPa 0,0 l/m 1,1 km/h (1 Bft) W-SW 247 5 min 6,8 C 13,5 C 8,7 km/h (2 Bft)
25.10.2021 14:05 12,7 C 93 % 69 % 1020,8 hPa 0,0 l/m 1,6 km/h (1 Bft) W 270 5 min 7,2 C 12,7 C 1,9 km/h (1 Bft)
25.10.2021 14:00 12,4 C 92 % 71 % 1020,8 hPa 0,0 l/m 2,3 km/h (1 Bft) W 270 5 min 7,3 C 12,4 C 7,4 km/h (2 Bft)
25.10.2021 13:55 12,1 C 85 % 67 % 1020,8 hPa 0,0 l/m 1,4 km/h (1 Bft) W-NW 292 5 min 6,2 C 12,1 C 0,0 km/h (0 Bft)
25.10.2021 13:50 11,9 C 89 % 69 % 1020,8 hPa 0,0 l/m 0,8 km/h (0 Bft) N-NO 22 5 min 6,4 C 11,9 C 3,9 km/h (1 Bft)
25.10.2021 13:45 11,8 C 92 % 70 % 1020,8 hPa 0,0 l/m 0,5 km/h (0 Bft) O-SO 112 5 min 6,5 C 11,8 C 0,0 km/h (0 Bft)
25.10.2021 13:40 11,5 C 93 % 71 % 1021,2 hPa 0,0 l/m 0,6 km/h (0 Bft) W 270 5 min 6,4 C 11,5 C 0,0 km/h (0 Bft)
25.10.2021 13:35 11,3 C 91 % 72 % 1021,2 hPa 0,0 l/m 0,8 km/h (0 Bft) SW 225 5 min 6,4 C 11,3 C 0,0 km/h (0 Bft)
25.10.2021 13:30 11,1 C 90 % 74 % 1021,2 hPa 0,0 l/m 1,0 km/h (0 Bft) N-NW 337 5 min 6,6 C 11,1 C 2,9 km/h (1 Bft)
25.10.2021 13:25 10,7 C 90 % 75 % 1021,2 hPa 0,0 l/m 2,1 km/h (1 Bft) N 360 5 min 6,5 C 10,7 C 2,7 km/h (1 Bft)
25.10.2021 13:20 10,5 C 91 % 75 % 1021,4 hPa 0,0 l/m 2,6 km/h (1 Bft) N-NW 337 5 min 6,3 C 10,5 C 2,7 km/h (1 Bft)
25.10.2021 13:15 10,1 C 93 % 78 % 1021,4 hPa 0,0 l/m 2,4 km/h (1 Bft) N 360 5 min 6,4 C 10,1 C 2,3 km/h (1 Bft)
25.10.2021 13:10 10,0 C 93 % 77 % 1021,4 hPa 0,0 l/m 2,1 km/h (1 Bft) N 360 5 min 6,2 C 10,0 C 4,8 km/h (1 Bft)
25.10.2021 13:05 9,7 C 93 % 79 % 1021,4 hPa 0,0 l/m 1,1 km/h (1 Bft) N-NO 22 5 min 6,2 C 9,7 C 0,0 km/h (0 Bft)
25.10.2021 13:00 9,5 C 94 % 80 % 1021,6 hPa 0,0 l/m 0,5 km/h (0 Bft) NO 45 5 min 6,2 C 9,5 C 0,0 km/h (0 Bft)
25.10.2021 12:55 9,1 C 93 % 81 % 1021,6 hPa 0,0 l/m 0,0 km/h (0 Bft) O 90 5 min 6,0 C 9,1 C 0,0 km/h (0 Bft)
25.10.2021 12:50 8,7 C 93 % 81 % 1021,6 hPa 0,0 l/m 0,0 km/h (0 Bft) O-SO 112 5 min 5,6 C 8,7 C 0,0 km/h (0 Bft)
25.10.2021 12:45 8,3 C 93 % 81 % 1021,6 hPa 0,0 l/m 0,0 km/h (0 Bft) NO 45 5 min 5,2 C 8,3 C 1,6 km/h (1 Bft)
25.10.2021 12:40 8,1 C 91 % 82 % 1021,3 hPa 0,0 l/m 0,0 km/h (0 Bft) O 90 5 min 5,2 C 8,1 C 0,0 km/h (0 Bft)
25.10.2021 12:35 7,6 C 90 % 84 % 1021,3 hPa 0,0 l/m 0,0 km/h (0 Bft) O 90 5 min 5,1 C 7,6 C 0,0 km/h (0 Bft)
25.10.2021 12:30 7,5 C 90 % 85 % 1021,3 hPa 0,0 l/m 0,2 km/h (0 Bft) O-SO 112 5 min 5,1 C 7,5 C 0,0 km/h (0 Bft)
25.10.2021 12:25 7,2 C 78 % 85 % 1021,3 hPa 0,0 l/m 0,2 km/h (0 Bft) SO 135 0 min 4,9 C 7,2 C 1,6 km/h (1 Bft)
25.10.2021 12:20 6,9 C 85 % 85 % 1021,1 hPa 0,0 l/m 0,0 km/h (0 Bft) O-NO 67 0 min 4,6 C 6,9 C 0,0 km/h (0 Bft)
25.10.2021 12:15 6,5 C 90 % 87 % 1021,1 hPa 0,0 l/m 0,0 km/h (0 Bft) O-SO 112 5 min 4,5 C 6,5 C 0,0 km/h (0 Bft)
25.10.2021 12:10 6,3 C 86 % 88 % 1021,1 hPa 0,0 l/m 0,0 km/h (0 Bft) S 180 5 min 4,5 C 6,3 C 0,0 km/h (0 Bft)
25.10.2021 12:05 6,1 C 85 % 88 % 1021,1 hPa 0,0 l/m 0,0 km/h (0 Bft) N 360 0 min 4,3 C 6,1 C 0,0 km/h (0 Bft)
25.10.2021 12:00 5,9 C 89 % 88 % 1021,1 hPa 0,0 l/m 0,0 km/h (0 Bft) SW 225 5 min 4,1 C 5,9 C 0,0 km/h (0 Bft)
25.10.2021 11:55 5,4 C 89 % 89 % 1021,1 hPa 0,0 l/m 0,0 km/h (0 Bft) S-SO 157 5 min 3,7 C 5,4 C 0,0 km/h (0 Bft)
25.10.2021 11:50 5,2 C 83 % 89 % 1021,1 hPa 0,0 l/m 0,0 km/h (0 Bft) N-NW 337 0 min 3,5 C 5,2 C 0,0 km/h (0 Bft)
25.10.2021 11:45 4,9 C 80 % 90 % 1021,1 hPa 0,0 l/m 0,0 km/h (0 Bft) N-NO 22 0 min 3,4 C 4,9 C 0,0 km/h (0 Bft)
25.10.2021 11:40 4,8 C 85 % 90 % 1021,1 hPa 0,0 l/m 0,0 km/h (0 Bft) O 90 5 min 3,3 C 4,8 C 0,0 km/h (0 Bft)
25.10.2021 11:35 4,5 C 84 % 90 % 1021,1 hPa 0,0 l/m 0,0 km/h (0 Bft) O-NO 67 0 min 3,0 C 4,5 C 0,0 km/h (0 Bft)
25.10.2021 11:30 4,2 C 88 % 91 % 1021,1 hPa 0,0 l/m 0,0 km/h (0 Bft) NW 315 5 min 2,9 C 4,2 C 0,0 km/h (0 Bft)
25.10.2021 11:25 4,0 C 82 % 91 % 1021,1 hPa 0,0 l/m 0,0 km/h (0 Bft) S-SO 157 0 min 2,7 C 4,0 C 0,0 km/h (0 Bft)
25.10.2021 11:20 4,0 C 73 % 91 % 1021,2 hPa 0,0 l/m 0,0 km/h (0 Bft) W-NW 292 0 min 2,7 C 4,0 C 0,0 km/h (0 Bft)
25.10.2021 11:15 3,7 C 73 % 91 % 1021,2 hPa 0,0 l/m 0,0 km/h (0 Bft) W-SW 247 0 min 2,4 C 3,7 C 0,0 km/h (0 Bft)
25.10.2021 11:10 3,6 C 73 % 91 % 1021,2 hPa 0,0 l/m 0,0 km/h (0 Bft) S 180 0 min 2,3 C 3,6 C 0,0 km/h (0 Bft)
25.10.2021 11:05 3,3 C 87 % 92 % 1021,2 hPa 0,0 l/m 0,0 km/h (0 Bft) NO 45 5 min 2,1 C 3,3 C 0,0 km/h (0 Bft)
25.10.2021 11:00 3,0 C 87 % 92 % 1021,1 hPa 0,0 l/m 0,0 km/h (0 Bft) NW 315 5 min 1,8 C 3,0 C 0,0 km/h (0 Bft)
25.10.2021 10:55 2,7 C 81 % 91 % 1021,1 hPa 0,0 l/m 0,0 km/h (0 Bft) NW 315 0 min 1,4 C 2,7 C 0,0 km/h (0 Bft)
25.10.2021 10:50 2,4 C 77 % 91 % 1021,1 hPa 0,0 l/m 0,0 km/h (0 Bft) N-NW 337 0 min 1,1 C 2,4 C 0,0 km/h (0 Bft)
25.10.2021 10:45 2,3 C 78 % 91 % 1021,1 hPa 0,0 l/m 0,0 km/h (0 Bft) W 270 0 min 1,0 C 2,3 C 0,0 km/h (0 Bft)
25.10.2021 10:40 2,2 C 70 % 91 % 1021,1 hPa 0,0 l/m 0,0 km/h (0 Bft) NW 315 0 min 0,9 C 2,2 C 0,0 km/h (0 Bft)
25.10.2021 10:35 2,1 C 78 % 91 % 1021,1 hPa 0,0 l/m 0,0 km/h (0 Bft) NO 45 0 min 0,8 C 2,1 C 0,0 km/h (0 Bft)
25.10.2021 10:30 2,0 C 78 % 91 % 1021,1 hPa 0,0 l/m 0,0 km/h (0 Bft) N-NO 22 0 min 0,7 C 2,0 C 0,0 km/h (0 Bft)
25.10.2021 10:25 1,9 C 79 % 91 % 1021,1 hPa 0,0 l/m 0,2 km/h (0 Bft) NW 315 0 min 0,6 C 1,9 C 0,0 km/h (0 Bft)
25.10.2021 10:20 1,7 C 79 % 90 % 1020,9 hPa 0,0 l/m 0,2 km/h (0 Bft) N 360 0 min 0,2 C 1,7 C 0,0 km/h (0 Bft)
25.10.2021 10:15 1,4 C 78 % 90 % 1020,9 hPa 0,2 l/m 0,0 km/h (0 Bft) N 360 0 min -0,1 C 1,4 C 0,0 km/h (0 Bft)
25.10.2021 10:10 1,3 C 78 % 90 % 1020,9 hPa 0,0 l/m 0,0 km/h (0 Bft) N-NW 337 0 min -0,2 C 1,3 C 1,6 km/h (1 Bft)
25.10.2021 10:05 1,1 C 82 % 90 % 1020,9 hPa 0,0 l/m 0,0 km/h (0 Bft) NW 315 0 min -0,4 C 1,1 C 0,0 km/h (0 Bft)
25.10.2021 10:00 0,7 C 82 % 90 % 1021,1 hPa 0,0 l/m 0,0 km/h (0 Bft) W-NW 292 0 min -0,7 C 0,7 C 0,0 km/h (0 Bft)
25.10.2021 09:55 0,5 C 81 % 90 % 1021,1 hPa 0,0 l/m 0,0 km/h (0 Bft) W-SW 247 0 min -0,9 C 0,5 C 0,0 km/h (0 Bft)
25.10.2021 09:50 0,5 C 76 % 90 % 1021,1 hPa 0,0 l/m 0,0 km/h (0 Bft) W-SW 247 0 min -0,9 C 0,5 C 0,0 km/h (0 Bft)
25.10.2021 09:45 0,3 C 79 % 90 % 1021,1 hPa 0,0 l/m 0,0 km/h (0 Bft) S 180 0 min -1,1 C 0,3 C 0,0 km/h (0 Bft)
25.10.2021 09:40 0,0 C 78 % 90 % 1020,6 hPa 0,0 l/m 0,0 km/h (0 Bft) S 180 0 min -1,4 C 0,0 C 0,0 km/h (0 Bft)
25.10.2021 09:35 -0,1 C 79 % 90 % 1020,6 hPa 0,0 l/m 0,2 km/h (0 Bft) S 180 0 min -1,5 C -0,1 C 0,0 km/h (0 Bft)
25.10.2021 09:30 -0,3 C 80 % 90 % 1020,6 hPa 0,0 l/m 0,2 km/h (0 Bft) S 180 0 min -1,7 C -0,3 C 0,0 km/h (0 Bft)
25.10.2021 09:25 -0,5 C 78 % 90 % 1020,6 hPa 0,0 l/m 0,0 km/h (0 Bft) S 180 0 min -1,9 C -0,5 C 0,0 km/h (0 Bft)
25.10.2021 09:20 -0,5 C 77 % 89 % 1020,6 hPa 0,0 l/m 0,0 km/h (0 Bft) S 180 0 min -2,1 C -0,5 C 0,0 km/h (0 Bft)
25.10.2021 09:15 -0,7 C 72 % 89 % 1020,6 hPa 0,0 l/m 0,0 km/h (0 Bft) S 180 0 min -2,3 C -0,7 C 0,0 km/h (0 Bft)
25.10.2021 09:10 -0,8 C 70 % 89 % 1020,6 hPa 0,0 l/m 0,0 km/h (0 Bft) S 180 0 min -2,4 C -0,8 C 0,0 km/h (0 Bft)
25.10.2021 09:05 -0,9 C 70 % 89 % 1020,6 hPa 0,0 l/m 0,0 km/h (0 Bft) S 180 0 min -2,5 C -0,9 C 0,0 km/h (0 Bft)
25.10.2021 09:00 -0,9 C 65 % 89 % 1020,4 hPa 0,0 l/m 0,0 km/h (0 Bft) S 180 0 min -2,5 C -0,9 C 0,0 km/h (0 Bft)
25.10.2021 08:55 -0,9 C 61 % 89 % 1020,4 hPa 0,0 l/m 0,0 km/h (0 Bft) S 180 0 min -2,5 C -0,9 C 0,0 km/h (0 Bft)
25.10.2021 08:50 -0,9 C 48 % 89 % 1020,4 hPa 0,0 l/m 0,0 km/h (0 Bft) S 180 0 min -2,5 C -0,9 C 0,0 km/h (0 Bft)
25.10.2021 08:45 -0,9 C 47 % 89 % 1020,4 hPa 0,0 l/m 0,0 km/h (0 Bft) S 180 0 min -2,5 C -0,9 C 0,0 km/h (0 Bft)
25.10.2021 08:40 -1,1 C 37 % 89 % 1020,6 hPa 0,0 l/m 0,0 km/h (0 Bft) S 180 0 min -2,7 C -1,1 C 0,0 km/h (0 Bft)
25.10.2021 08:35 -1,1 C 38 % 89 % 1020,6 hPa 0,0 l/m 0,0 km/h (0 Bft) S 180 0 min -2,7 C -1,1 C 0,0 km/h (0 Bft)
25.10.2021 08:30 -1,1 C 41 % 89 % 1020,6 hPa 0,0 l/m 0,0 km/h (0 Bft) S 180 0 min -2,7 C -1,1 C 0,0 km/h (0 Bft)
25.10.2021 08:25 -1,3 C 26 % 89 % 1020,6 hPa 0,0 l/m 0,0 km/h (0 Bft) S 180 0 min -2,9 C -1,3 C 0,0 km/h (0 Bft)
25.10.2021 08:20 -1,1 C 40 % 89 % 1020,4 hPa 0,0 l/m 0,3 km/h (0 Bft) S 180 0 min -2,7 C -1,1 C 0,0 km/h (0 Bft)
25.10.2021 08:15 -1,3 C 34 % 89 % 1020,4 hPa 0,0 l/m 0,3 km/h (0 Bft) S 180 0 min -2,9 C -1,3 C 0,0 km/h (0 Bft)
25.10.2021 08:10 -1,3 C 27 % 89 % 1020,4 hPa 0,0 l/m 0,2 km/h (0 Bft) S 180 0 min -2,9 C -1,3 C 2,3 km/h (1 Bft)
25.10.2021 08:05 -1,3 C 12 % 89 % 1020,4 hPa 0,0 l/m 0,0 km/h (0 Bft) S 180 0 min -2,9 C -1,3 C 0,0 km/h (0 Bft)
25.10.2021 08:00 -1,3 C 9 % 89 % 1020,5 hPa 0,0 l/m 0,0 km/h (0 Bft) S 180 0 min -2,9 C -1,3 C 0,0 km/h (0 Bft)
25.10.2021 07:55 -1,2 C 5 % 89 % 1020,5 hPa 0,0 l/m 0,0 km/h (0 Bft) S 180 0 min -2,8 C -1,2 C 0,0 km/h (0 Bft)
25.10.2021 07:50 -1,2 C 3 % 89 % 1020,5 hPa 0,0 l/m 0,0 km/h (0 Bft) S 180 0 min -2,8 C -1,2 C 0,0 km/h (0 Bft)
25.10.2021 07:45 -1,2 C 0 % 89 % 1020,5 hPa 0,0 l/m 0,0 km/h (0 Bft) S 180 0 min -2,8 C -1,2 C 0,0 km/h (0 Bft)
25.10.2021 07:40 -1,2 C 0 % 89 % 1020,6 hPa 0,0 l/m 0,0 km/h (0 Bft) S 180 0 min -2,8 C -1,2 C 0,0 km/h (0 Bft)
25.10.2021 07:35 -1,1 C 0 % 89 % 1020,6 hPa 0,0 l/m 0,0 km/h (0 Bft) S 180 0 min -2,7 C -1,1 C 0,0 km/h (0 Bft)
25.10.2021 07:30 -1,1 C 0 % 89 % 1020,6 hPa 0,0 l/m 0,0 km/h (0 Bft) S 180 0 min -2,7 C -1,1 C 0,0 km/h (0 Bft)
25.10.2021 07:25 -1,1 C 0 % 89 % 1020,6 hPa 0,0 l/m 0,0 km/h (0 Bft) S 180 0 min -2,7 C -1,1 C 0,0 km/h (0 Bft)
25.10.2021 07:20 -1,1 C 0 % 89 % 1020,8 hPa 0,0 l/m 0,0 km/h (0 Bft) S 180 0 min -2,7 C -1,1 C 0,0 km/h (0 Bft)
25.10.2021 07:15 -0,9 C 0 % 89 % 1020,8 hPa 0,0 l/m 0,0 km/h (0 Bft) S 180 0 min -2,5 C -0,9 C 0,0 km/h (0 Bft)
25.10.2021 07:10 -0,9 C 0 % 89 % 1020,8 hPa 0,0 l/m 0,0 km/h (0 Bft) S 180 0 min -2,5 C -0,9 C 0,0 km/h (0 Bft)
25.10.2021 07:05 -0,9 C 0 % 89 % 1020,8 hPa 0,0 l/m 0,0 km/h (0 Bft) S 180 0 min -2,5 C -0,9 C 2,1 km/h (1 Bft)
25.10.2021 07:00 -1,0 C 0 % 89 % 1020,8 hPa 0,0 l/m 0,0 km/h (0 Bft) S 180 0 min -2,6 C -1,0 C 0,0 km/h (0 Bft)
25.10.2021 06:55 -0,9 C 0 % 89 % 1020,8 hPa 0,0 l/m 0,0 km/h (0 Bft) S 180 0 min -2,5 C -0,9 C 0,0 km/h (0 Bft)
25.10.2021 06:50 -0,9 C 0 % 89 % 1020,8 hPa 0,0 l/m 0,0 km/h (0 Bft) S 180 0 min -2,5 C -0,9 C 0,0 km/h (0 Bft)
25.10.2021 06:45 -0,9 C 0 % 89 % 1020,8 hPa 0,0 l/m 0,0 km/h (0 Bft) S 180 0 min -2,5 C -0,9 C 0,0 km/h (0 Bft)
25.10.2021 06:40 -0,9 C 0 % 89 % 1020,6 hPa 0,0 l/m 0,0 km/h (0 Bft) S 180 0 min -2,5 C -0,9 C 0,0 km/h (0 Bft)
25.10.2021 06:35 -0,9 C 0 % 89 % 1020,6 hPa 0,0 l/m 0,2 km/h (0 Bft) S 180 0 min -2,5 C -0,9 C 0,0 km/h (0 Bft)
25.10.2021 06:30 -0,9 C 0 % 89 % 1020,6 hPa 0,0 l/m 0,2 km/h (0 Bft) S 180 0 min -2,5 C -0,9 C 0,0 km/h (0 Bft)
25.10.2021 06:25 -0,9 C 0 % 89 % 1020,6 hPa 0,0 l/m 0,0 km/h (0 Bft) S 180 0 min -2,5 C -0,9 C 1,6 km/h (1 Bft)
25.10.2021 06:20 -0,9 C 0 % 89 % 1020,9 hPa 0,0 l/m 0,0 km/h (0 Bft) S 180 0 min -2,5 C -0,9 C 0,0 km/h (0 Bft)
25.10.2021 06:15 -0,7 C 0 % 89 % 1020,9 hPa 0,0 l/m 0,0 km/h (0 Bft) S 180 0 min -2,3 C -0,7 C 0,0 km/h (0 Bft)
25.10.2021 06:10 -0,7 C 0 % 89 % 1020,9 hPa 0,0 l/m 0,0 km/h (0 Bft) S 180 0 min -2,3 C -0,7 C 0,0 km/h (0 Bft)
25.10.2021 06:05 -0,8 C 0 % 89 % 1020,9 hPa 0,0 l/m 0,0 km/h (0 Bft) S 180 0 min -2,4 C -0,8 C 0,0 km/h (0 Bft)
25.10.2021 06:00 -0,8 C 0 % 89 % 1021,0 hPa 0,0 l/m 0,0 km/h (0 Bft) S 180 0 min -2,4 C -0,8 C 0,0 km/h (0 Bft)
25.10.2021 05:55 -0,7 C 0 % 89 % 1021,0 hPa 0,0 l/m 0,0 km/h (0 Bft) S 180 0 min -2,3 C -0,7 C 0,0 km/h (0 Bft)
25.10.2021 05:50 -0,7 C 0 % 89 % 1021,0 hPa 0,0 l/m 0,0 km/h (0 Bft) S 180 0 min -2,3 C -0,7 C 0,0 km/h (0 Bft)
25.10.2021 05:45 -0,7 C 0 % 89 % 1021,0 hPa 0,0 l/m 0,0 km/h (0 Bft) S 180 0 min -2,3 C -0,7 C 0,0 km/h (0 Bft)
25.10.2021 05:40 -0,7 C 0 % 89 % 1021,1 hPa 0,0 l/m 0,0 km/h (0 Bft) S 180 0 min -2,3 C -0,7 C 0,0 km/h (0 Bft)
25.10.2021 05:35 -0,7 C 0 % 89 % 1021,1 hPa 0,0 l/m 0,0 km/h (0 Bft) S 180 0 min -2,3 C -0,7 C 0,0 km/h (0 Bft)
25.10.2021 05:30 -0,7 C 0 % 89 % 1021,1 hPa 0,0 l/m 0,0 km/h (0 Bft) S 180 0 min -2,3 C -0,7 C 0,0 km/h (0 Bft)
25.10.2021 05:25 -0,7 C 0 % 89 % 1021,1 hPa 0,0 l/m 0,0 km/h (0 Bft) S 180 0 min -2,3 C -0,7 C 0,0 km/h (0 Bft)
25.10.2021 05:20 -0,5 C 0 % 89 % 1021,1 hPa 0,0 l/m 0,0 km/h (0 Bft) S 180 0 min -2,1 C -0,5 C 0,0 km/h (0 Bft)
25.10.2021 05:15 -0,5 C 0 % 89 % 1021,1 hPa 0,0 l/m 0,0 km/h (0 Bft) S 180 0 min -2,1 C -0,5 C 0,0 km/h (0 Bft)
25.10.2021 05:10 -0,5 C 0 % 89 % 1021,1 hPa 0,0 l/m 0,0 km/h (0 Bft) S 180 0 min -2,1 C -0,5 C 0,0 km/h (0 Bft)
25.10.2021 05:05 -0,5 C 0 % 89 % 1021,1 hPa 0,0 l/m 0,0 km/h (0 Bft) S 180 0 min -2,1 C -0,5 C 0,0 km/h (0 Bft)
25.10.2021 05:00 -0,5 C 0 % 89 % 1021,0 hPa 0,0 l/m 0,0 km/h (0 Bft) S 180 0 min -2,1 C -0,5 C 0,0 km/h (0 Bft)
25.10.2021 04:55 -0,3 C 0 % 89 % 1021,0 hPa 0,0 l/m 0,0 km/h (0 Bft) S 180 0 min -1,9 C -0,3 C 0,0 km/h (0 Bft)
25.10.2021 04:50 -0,4 C 0 % 89 % 1021,0 hPa 0,0 l/m 0,0 km/h (0 Bft) S 180 0 min -2,0 C -0,4 C 0,0 km/h (0 Bft)
25.10.2021 04:45 -0,3 C 0 % 89 % 1021,0 hPa 0,0 l/m 0,0 km/h (0 Bft) S 180 0 min -1,9 C -0,3 C 0,0 km/h (0 Bft)
25.10.2021 04:40 -0,3 C 0 % 89 % 1021,2 hPa 0,0 l/m 0,0 km/h (0 Bft) S 180 0 min -1,9 C -0,3 C 0,0 km/h (0 Bft)
25.10.2021 04:35 -0,1 C 0 % 89 % 1021,2 hPa 0,0 l/m 0,0 km/h (0 Bft) S 180 0 min -1,7 C -0,1 C 0,0 km/h (0 Bft)
25.10.2021 04:30 -0,2 C 0 % 89 % 1021,2 hPa 0,0 l/m 0,0 km/h (0 Bft) S 180 0 min -1,8 C -0,2 C 0,0 km/h (0 Bft)
25.10.2021 04:25 -0,1 C 0 % 89 % 1021,2 hPa 0,0 l/m 0,0 km/h (0 Bft) S 180 0 min -1,7 C -0,1 C 2,1 km/h (1 Bft)
25.10.2021 04:20 -0,1 C 0 % 89 % 1021,3 hPa 0,0 l/m 0,0 km/h (0 Bft) S 180 0 min -1,7 C -0,1 C 0,0 km/h (0 Bft)
25.10.2021 04:15 0,1 C 0 % 89 % 1021,3 hPa 0,0 l/m 0,0 km/h (0 Bft) S 180 0 min -1,5 C 0,1 C 0,0 km/h (0 Bft)
25.10.2021 04:10 0,0 C 0 % 89 % 1021,3 hPa 0,0 l/m 0,0 km/h (0 Bft) S 180 0 min -1,6 C 0,0 C 0,0 km/h (0 Bft)
25.10.2021 04:05 0,0 C 0 % 89 % 1021,3 hPa 0,0 l/m 0,2 km/h (0 Bft) S 180 0 min -1,6 C 0,0 C 0,0 km/h (0 Bft)
25.10.2021 04:00 0,0 C 0 % 89 % 1021,2 hPa 0,0 l/m 0,2 km/h (0 Bft) S 180 0 min -1,6 C 0,0 C 0,0 km/h (0 Bft)
25.10.2021 03:55 0,1 C 0 % 89 % 1021,2 hPa 0,0 l/m 0,0 km/h (0 Bft) S 180 0 min -1,5 C 0,1 C 0,0 km/h (0 Bft)
25.10.2021 03:50 0,1 C 0 % 89 % 1021,2 hPa 0,0 l/m 0,0 km/h (0 Bft) S 180 0 min -1,5 C 0,1 C 0,0 km/h (0 Bft)
25.10.2021 03:45 0,1 C 0 % 89 % 1021,2 hPa 0,0 l/m 0,0 km/h (0 Bft) S 180 0 min -1,5 C 0,1 C 0,0 km/h (0 Bft)
25.10.2021 03:40 0,1 C 0 % 89 % 1021,3 hPa 0,0 l/m 0,0 km/h (0 Bft) S 180 0 min -1,5 C 0,1 C 0,0 km/h (0 Bft)
25.10.2021 03:35 0,1 C 0 % 89 % 1021,3 hPa 0,0 l/m 0,0 km/h (0 Bft) S 180 0 min -1,5 C 0,1 C 0,0 km/h (0 Bft)
25.10.2021 03:30 0,3 C 0 % 89 % 1021,3 hPa 0,0 l/m 0,0 km/h (0 Bft) S 180 0 min -1,3 C 0,3 C 0,0 km/h (0 Bft)
25.10.2021 03:25 0,3 C 0 % 89 % 1021,3 hPa 0,0 l/m 0,0 km/h (0 Bft) S 180 0 min -1,3 C 0,3 C 0,0 km/h (0 Bft)
25.10.2021 03:20 0,3 C 0 % 89 % 1021,5 hPa 0,0 l/m 0,0 km/h (0 Bft) S 180 0 min -1,3 C 0,3 C 0,0 km/h (0 Bft)
25.10.2021 03:15 0,3 C 0 % 89 % 1021,5 hPa 0,0 l/m 0,0 km/h (0 Bft) S-SO 157 0 min -1,3 C 0,3 C 0,0 km/h (0 Bft)
25.10.2021 03:14 0,3 C 0 % 89 % 1021,5 hPa 0,0 l/m 0,0 km/h (0 Bft) S-SO 157 0 min -1,3 C 0,3 C 0,0 km/h (0 Bft)
25.10.2021 03:11 0,3 C 0 % 89 % 1021,5 hPa 0,0 l/m 0,0 km/h (0 Bft) S-SO 157 0 min -1,3 C 0,3 C 0,0 km/h (0 Bft)
25.10.2021 03:10 0,4 C 0 % 89 % 1021,5 hPa 0,0 l/m 0,0 km/h (0 Bft) S-SO 157 0 min -1,2 C 0,4 C 0,0 km/h (0 Bft)
25.10.2021 03:05 0,5 C 0 % 89 % 1021,5 hPa 0,0 l/m 0,0 km/h (0 Bft) S-SW 202 0 min -1,1 C 0,5 C 0,0 km/h (0 Bft)
25.10.2021 03:00 0,5 C 0 % 89 % 1021,6 hPa 0,0 l/m 0,0 km/h (0 Bft) S-SO 157 0 min -1,1 C 0,5 C 0,0 km/h (0 Bft)
25.10.2021 02:55 0,7 C 0 % 89 % 1021,6 hPa 0,0 l/m 0,0 km/h (0 Bft) O-NO 67 0 min -0,9 C 0,7 C 0,0 km/h (0 Bft)
25.10.2021 02:50 0,7 C 0 % 89 % 1021,6 hPa 0,0 l/m 0,0 km/h (0 Bft) N-NW 337 0 min -0,9 C 0,7 C 0,0 km/h (0 Bft)
25.10.2021 02:45 0,7 C 0 % 89 % 1021,6 hPa 0,0 l/m 0,6 km/h (0 Bft) NW 315 0 min -0,9 C 0,7 C 0,0 km/h (0 Bft)
25.10.2021 02:40 0,5 C 0 % 89 % 1021,6 hPa 0,0 l/m 0,8 km/h (0 Bft) NW 315 0 min -1,1 C 0,5 C 0,0 km/h (0 Bft)
25.10.2021 02:35 0,5 C 0 % 89 % 1021,6 hPa 0,0 l/m 0,2 km/h (0 Bft) N-NO 22 0 min -1,1 C 0,5 C 0,0 km/h (0 Bft)
25.10.2021 02:30 0,5 C 0 % 89 % 1021,6 hPa 0,0 l/m 0,2 km/h (0 Bft) NW 315 0 min -1,1 C 0,5 C 0,0 km/h (0 Bft)
25.10.2021 02:25 0,7 C 0 % 89 % 1021,6 hPa 0,0 l/m 0,0 km/h (0 Bft) NW 315 0 min -0,9 C 0,7 C 0,0 km/h (0 Bft)
25.10.2021 02:20 0,7 C 0 % 89 % 1021,9 hPa 0,0 l/m 0,0 km/h (0 Bft) SO 135 0 min -0,9 C 0,7 C 0,0 km/h (0 Bft)
25.10.2021 02:15 0,7 C 0 % 89 % 1021,9 hPa 0,0 l/m 0,0 km/h (0 Bft) W-SW 247 0 min -0,9 C 0,7 C 0,0 km/h (0 Bft)
25.10.2021 02:10 0,7 C 0 % 89 % 1021,9 hPa 0,0 l/m 0,2 km/h (0 Bft) S-SO 157 0 min -0,9 C 0,7 C 0,0 km/h (0 Bft)
25.10.2021 02:05 0,7 C 0 % 89 % 1021,9 hPa 0,0 l/m 0,5 km/h (0 Bft) W 270 0 min -0,9 C 0,7 C 0,0 km/h (0 Bft)
25.10.2021 02:00 0,7 C 0 % 89 % 1021,9 hPa 0,0 l/m 0,5 km/h (0 Bft) S 180 0 min -0,9 C 0,7 C 0,0 km/h (0 Bft)
25.10.2021 01:55 0,7 C 0 % 89 % 1021,9 hPa 0,0 l/m 0,5 km/h (0 Bft) W 270 0 min -0,9 C 0,7 C 3,5 km/h (1 Bft)
25.10.2021 01:50 0,9 C 0 % 88 % 1021,9 hPa 0,0 l/m 0,5 km/h (0 Bft) SW 225 0 min -0,9 C 0,9 C 0,0 km/h (0 Bft)
25.10.2021 01:45 0,9 C 0 % 88 % 1021,9 hPa 0,0 l/m 0,3 km/h (0 Bft) S-SO 157 0 min -0,9 C 0,9 C 0,0 km/h (0 Bft)
25.10.2021 01:40 0,9 C 0 % 88 % 1021,7 hPa 0,0 l/m 0,2 km/h (0 Bft) NW 315 0 min -0,9 C 0,9 C 3,2 km/h (1 Bft)
25.10.2021 01:35 0,9 C 0 % 88 % 1021,7 hPa 0,0 l/m 0,2 km/h (0 Bft) W 270 0 min -0,9 C 0,9 C 0,0 km/h (0 Bft)
25.10.2021 01:30 0,9 C 0 % 88 % 1021,7 hPa 0,0 l/m 0,2 km/h (0 Bft) S 180 0 min -0,9 C 0,9 C 0,0 km/h (0 Bft)
25.10.2021 01:25 0,9 C 0 % 88 % 1021,7 hPa 0,0 l/m 0,6 km/h (0 Bft) S 180 0 min -0,9 C 0,9 C 2,1 km/h (1 Bft)
25.10.2021 01:20 0,9 C 0 % 88 % 1021,9 hPa 0,0 l/m 0,6 km/h (0 Bft) SO 135 0 min -0,9 C 0,9 C 0,0 km/h (0 Bft)
25.10.2021 01:15 0,9 C 0 % 88 % 1021,9 hPa 0,0 l/m 0,2 km/h (0 Bft) NO 45 0 min -0,9 C 0,9 C 0,0 km/h (0 Bft)
25.10.2021 01:10 0,9 C 0 % 88 % 1021,9 hPa 0,0 l/m 0,3 km/h (0 Bft) S-SO 157 0 min -0,9 C 0,9 C 0,0 km/h (0 Bft)
25.10.2021 01:05 1,1 C 0 % 88 % 1021,9 hPa 0,0 l/m 0,5 km/h (0 Bft) NO 45 0 min -0,7 C 1,1 C 1,9 km/h (1 Bft)
25.10.2021 01:00 1,1 C 0 % 88 % 1022,1 hPa 0,0 l/m 0,5 km/h (0 Bft) S-SO 157 0 min -0,7 C 1,1 C 0,0 km/h (0 Bft)
25.10.2021 00:55 1,1 C 0 % 88 % 1022,1 hPa 0,0 l/m 0,3 km/h (0 Bft) N 360 0 min -0,7 C 1,1 C 0,0 km/h (0 Bft)
25.10.2021 00:50 1,0 C 0 % 88 % 1022,1 hPa 0,0 l/m 0,6 km/h (0 Bft) NW 315 0 min -0,8 C 1,0 C 0,0 km/h (0 Bft)
25.10.2021 00:45 0,9 C 0 % 88 % 1022,1 hPa 0,0 l/m 1,4 km/h (1 Bft) W 270 0 min -0,9 C 0,9 C 3,4 km/h (1 Bft)
25.10.2021 00:40 0,8 C 0 % 87 % 1022,0 hPa 0,0 l/m 1,0 km/h (0 Bft) N-NW 337 0 min -1,1 C 0,8 C 0,0 km/h (0 Bft)
25.10.2021 00:35 0,9 C 0 % 87 % 1022,0 hPa 0,0 l/m 0,0 km/h (0 Bft) O-SO 112 0 min -1,0 C 0,9 C 0,0 km/h (0 Bft)
25.10.2021 00:30 0,9 C 0 % 87 % 1022,0 hPa 0,0 l/m 0,0 km/h (0 Bft) NW 315 0 min -1,0 C 0,9 C 0,0 km/h (0 Bft)
25.10.2021 00:25 0,9 C 0 % 87 % 1022,0 hPa 0,0 l/m 0,0 km/h (0 Bft) NW 315 0 min -1,0 C 0,9 C 0,0 km/h (0 Bft)
25.10.2021 00:20 0,9 C 0 % 87 % 1021,9 hPa 0,0 l/m 0,0 km/h (0 Bft) W-SW 247 0 min -1,0 C 0,9 C 0,0 km/h (0 Bft)
25.10.2021 00:15 1,0 C 0 % 87 % 1021,9 hPa 0,0 l/m 0,0 km/h (0 Bft) W 270 0 min -0,9 C 1,0 C 0,0 km/h (0 Bft)
25.10.2021 00:10 1,1 C 0 % 87 % 1021,9 hPa 0,0 l/m 0,0 km/h (0 Bft) W-NW 292 0 min -0,8 C 1,1 C 0,0 km/h (0 Bft)
25.10.2021 00:05 1,1 C 0 % 87 % 1021,9 hPa 0,0 l/m 0,0 km/h (0 Bft) W-SW 247 0 min -0,8 C 1,1 C 0,0 km/h (0 Bft)
25.10.2021 00:00 1,1 C 0 % 87 % 1022,1 hPa 0,0 l/m 0,0 km/h (0 Bft) W-SW 247 0 min -0,8 C 1,1 C 0,0 km/h (0 Bft)
24.10.2021 23:55 1,2 C 0 % 87 % 1022,1 hPa 0,0 l/m 0,0 km/h (0 Bft) W-SW 247 0 min -0,7 C 1,2 C 0,0 km/h (0 Bft)
24.10.2021 23:50 1,2 C 0 % 87 % 1022,1 hPa 0,0 l/m 0,0 km/h (0 Bft) W 270 0 min -0,7 C 1,2 C 0,0 km/h (0 Bft)
24.10.2021 23:45 1,2 C 0 % 87 % 1022,1 hPa 0,0 l/m 0,0 km/h (0 Bft) W-NW 292 0 min -0,7 C 1,2 C 0,0 km/h (0 Bft)
24.10.2021 23:40 1,3 C 0 % 87 % 1022,2 hPa 0,0 l/m 0,0 km/h (0 Bft) SO 135 0 min -0,6 C 1,3 C 0,0 km/h (0 Bft)
24.10.2021 23:35 1,5 C 0 % 87 % 1022,2 hPa 0,0 l/m 0,0 km/h (0 Bft) S-SW 202 0 min -0,4 C 1,5 C 0,0 km/h (0 Bft)
24.10.2021 23:30 1,5 C 0 % 87 % 1022,2 hPa 0,0 l/m 0,0 km/h (0 Bft) S-SW 202 0 min -0,4 C 1,5 C 0,0 km/h (0 Bft)
24.10.2021 23:25 1,5 C 0 % 87 % 1022,2 hPa 0,0 l/m 0,0 km/h (0 Bft) W 270 0 min -0,4 C 1,5 C 0,0 km/h (0 Bft)
24.10.2021 23:20 1,5 C 0 % 86 % 1022,1 hPa 0,0 l/m 0,0 km/h (0 Bft) W-NW 292 0 min -0,6 C 1,5 C 0,0 km/h (0 Bft)
24.10.2021 23:15 1,7 C 0 % 86 % 1022,1 hPa 0,0 l/m 0,0 km/h (0 Bft) S-SW 202 0 min -0,4 C 1,7 C 0,0 km/h (0 Bft)
24.10.2021 23:10 1,6 C 0 % 86 % 1022,1 hPa 0,0 l/m 0,0 km/h (0 Bft) SO 135 0 min -0,5 C 1,6 C 0,0 km/h (0 Bft)
24.10.2021 23:05 1,7 C 0 % 86 % 1022,1 hPa 0,0 l/m 0,0 km/h (0 Bft) W 270 0 min -0,4 C 1,7 C 0,0 km/h (0 Bft)
24.10.2021 23:00 1,8 C 0 % 86 % 1022,2 hPa 0,0 l/m 0,0 km/h (0 Bft) S-SO 157 0 min -0,3 C 1,8 C 0,0 km/h (0 Bft)
24.10.2021 22:55 1,9 C 0 % 86 % 1022,2 hPa 0,0 l/m 0,0 km/h (0 Bft) SW 225 0 min -0,2 C 1,9 C 0,0 km/h (0 Bft)
24.10.2021 22:50 2,0 C 0 % 86 % 1022,2 hPa 0,0 l/m 0,0 km/h (0 Bft) S-SW 202 0 min -0,1 C 2,0 C 0,0 km/h (0 Bft)
24.10.2021 22:45 2,0 C 0 % 86 % 1022,2 hPa 0,0 l/m 0,0 km/h (0 Bft) N-NO 22 0 min -0,1 C 2,0 C 0,0 km/h (0 Bft)
24.10.2021 22:40 2,1 C 0 % 86 % 1022,1 hPa 0,0 l/m 0,0 km/h (0 Bft) NO 45 0 min 0,0 C 2,1 C 0,0 km/h (0 Bft)
24.10.2021 22:35 2,2 C 0 % 86 % 1022,1 hPa 0,0 l/m 0,0 km/h (0 Bft) W-SW 247 0 min 0,1 C 2,2 C 0,0 km/h (0 Bft)
24.10.2021 22:30 2,3 C 0 % 86 % 1022,1 hPa 0,0 l/m 0,0 km/h (0 Bft) W-SW 247 0 min 0,2 C 2,3 C 0,0 km/h (0 Bft)
24.10.2021 22:25 2,3 C 0 % 86 % 1022,1 hPa 0,0 l/m 0,0 km/h (0 Bft) S-SO 157 0 min 0,2 C 2,3 C 0,0 km/h (0 Bft)
24.10.2021 22:20 2,4 C 0 % 86 % 1022,1 hPa 0,0 l/m 0,0 km/h (0 Bft) W-SW 247 0 min 0,3 C 2,4 C 0,0 km/h (0 Bft)
24.10.2021 22:15 2,4 C 0 % 86 % 1022,1 hPa 0,0 l/m 0,0 km/h (0 Bft) NW 315 0 min 0,3 C 2,4 C 0,0 km/h (0 Bft)
24.10.2021 22:10 2,4 C 0 % 86 % 1022,1 hPa 0,0 l/m 0,0 km/h (0 Bft) S 180 0 min 0,3 C 2,4 C 0,0 km/h (0 Bft)
24.10.2021 22:05 2,4 C 0 % 86 % 1022,1 hPa 0,0 l/m 0,0 km/h (0 Bft) S 180 0 min 0,3 C 2,4 C 0,0 km/h (0 Bft)
24.10.2021 22:00 2,4 C 0 % 86 % 1022,1 hPa 0,0 l/m 0,0 km/h (0 Bft) S 180 0 min 0,3 C 2,4 C 0,0 km/h (0 Bft)
24.10.2021 21:55 2,4 C 0 % 86 % 1022,1 hPa 0,0 l/m 0,0 km/h (0 Bft) W 270 0 min 0,3 C 2,4 C 0,0 km/h (0 Bft)
24.10.2021 21:50 2,4 C 0 % 85 % 1022,1 hPa 0,0 l/m 0,0 km/h (0 Bft) S-SW 202 0 min 0,1 C 2,4 C 0,0 km/h (0 Bft)
24.10.2021 21:45 2,4 C 0 % 85 % 1022,1 hPa 0,0 l/m 0,0 km/h (0 Bft) W-SW 247 0 min 0,1 C 2,4 C 0,0 km/h (0 Bft)
24.10.2021 21:40 2,4 C 0 % 85 % 1022,2 hPa 0,0 l/m 0,0 km/h (0 Bft) SW 225 0 min 0,1 C 2,4 C 0,0 km/h (0 Bft)
24.10.2021 21:35 2,4 C 0 % 85 % 1022,2 hPa 0,0 l/m 0,0 km/h (0 Bft) S 180 0 min 0,1 C 2,4 C 0,0 km/h (0 Bft)
24.10.2021 21:30 2,5 C 0 % 85 % 1022,2 hPa 0,0 l/m 0,0 km/h (0 Bft) S-SW 202 0 min 0,2 C 2,5 C 0,0 km/h (0 Bft)
24.10.2021 21:25 2,7 C 0 % 85 % 1022,2 hPa 0,0 l/m 0,0 km/h (0 Bft) S-SO 157 0 min 0,4 C 2,7 C 0,0 km/h (0 Bft)
24.10.2021 21:20 2,8 C 0 % 84 % 1022,5 hPa 0,0 l/m 0,0 km/h (0 Bft) W-SW 247 0 min 0,4 C 2,8 C 0,0 km/h (0 Bft)
24.10.2021 21:15 2,9 C 0 % 84 % 1022,5 hPa 0,0 l/m 0,0 km/h (0 Bft) S-SO 157 0 min 0,5 C 2,9 C 0,0 km/h (0 Bft)
24.10.2021 21:10 3,0 C 0 % 84 % 1022,5 hPa 0,0 l/m 0,0 km/h (0 Bft) S-SO 157 0 min 0,6 C 3,0 C 0,0 km/h (0 Bft)
24.10.2021 21:05 3,2 C 0 % 84 % 1022,5 hPa 0,0 l/m 0,0 km/h (0 Bft) SW 225 0 min 0,8 C 3,2 C 0,0 km/h (0 Bft)
24.10.2021 21:00 3,3 C 0 % 84 % 1022,7 hPa 0,0 l/m 0,0 km/h (0 Bft) SW 225 0 min 0,9 C 3,3 C 0,0 km/h (0 Bft)
_ Min-Zeit 08:00 - 14:45 18:45 - 21:00 - - - 08:00 08:00 21:00
Minimum _ -1,3 C - 60 % 1018,6 hPa - 0,0 km/h (0 Bft) - - - -2,9 C -1,3 C 0,0 km/h (0 Bft)
_ Max-Zeit 14:50 14:10 11:00 21:00 10:15 14:55 - - 11:00 16:40 14:50 14:40
Maximum _ 15,0 C 94 % 92 % 1022,7 hPa 0,2 l/m 6,3 km/h
S (2 Bft)
- - 5 min 8,3 C 15,0 C 12,7 km/h
NW (3 Bft)
Durchschnitt _ 4,8 C #5:25 h 82 % 1020,9 hPa #0,2 l/m 0,5 km/h (0 Bft) W - #5:25 h 1,8 C 4,8 C 0,8 km/h (0 Bft)